| time (UTC) | temp F | wind direction | speed knots | gust knots | rain 1hr in | rain 24hr in | rain mn in | humidity % | barometer mb |
| 20260905034608 | 82 | 0 | 0.0 | 0.0 | 0.00 | 0.14 | 0.14 | 86 | 1014.2 |
| 20260905033104 | 82 | 0 | 0.0 | 0.0 | 0.00 | 0.14 | 0.14 | 86 | 1014.3 |
| 20260905031613 | 83 | 0 | 0.0 | 0.0 | 0.00 | 0.14 | 0.14 | 86 | 1014.3 |
| 20260905030112 | 83 | 0 | 0.0 | 0.0 | 0.00 | 0.14 | 0.14 | 86 | 1014.1 |
| 20260905024612 | 83 | 0 | 0.0 | 0.0 | 0.00 | 0.14 | 0.14 | 86 | 1014.1 |
| 20260905023113 | 83 | 0 | 0.0 | 0.0 | 0.00 | 0.14 | 0.14 | 85 | 1014.0 |
| 20260905021607 | 84 | 0 | 0.0 | 1.7 | 0.00 | 0.14 | 0.14 | 85 | 1013.8 |
| 20260905020058 | 84 | 0 | 0.0 | 0.0 | 0.00 | 0.14 | 0.14 | 84 | 1013.8 |
| 20260905014604 | 84 | 0 | 0.0 | 0.0 | 0.00 | 0.14 | 0.14 | 84 | 1013.6 |
| 20260905013104 | 85 | 0 | 0.0 | 0.9 | 0.00 | 0.14 | 0.14 | 83 | 1013.6 |
| 20260905011601 | 85 | 0 | 0.0 | 0.0 | 0.00 | 0.14 | 0.14 | 82 | 1013.4 |
| 20260905010110 | 85 | 0 | 0.0 | 0.0 | 0.00 | 0.14 | 0.14 | 81 | 1013.0 |
| 20260905004603 | 86 | 0 | 0.0 | 1.7 | 0.00 | 0.14 | 0.14 | 80 | 1013.0 |
| 20260905003101 | 87 | 0 | 0.0 | 3.5 | 0.00 | 0.14 | 0.14 | 79 | 1012.9 |
| 20260905001605 | 88 | 0 | 0.0 | 0.0 | 0.00 | 0.14 | 0.14 | 78 | 1013.0 |
| 20260904234605 | 91 | 0 | 0.0 | 0.9 | 0.00 | 0.14 | 0.14 | 72 | 1012.9 |
| 20260904233108 | 91 | 0 | 0.0 | 1.7 | 0.00 | 0.14 | 0.14 | 72 | 1013.0 |
| 20260904231608 | 92 | 0 | 0.0 | 1.7 | 0.00 | 0.14 | 0.14 | 70 | 1013.0 |
| 20260904230108 | 93 | 0 | 0.0 | 1.7 | 0.00 | 0.14 | 0.14 | 69 | 1013.0 |
| 20260904224601 | 93 | 0 | 0.0 | 2.6 | 0.00 | 0.14 | 0.14 | 67 | 1012.9 |
| 20260904223100 | 93 | 0 | 0.0 | 1.7 | 0.00 | 0.14 | 0.14 | 67 | 1013.1 |
| 20260904221609 | 92 | 0 | 0.0 | 3.5 | 0.00 | 0.14 | 0.14 | 69 | 1012.9 |
| 20260904220109 | 91 | 0 | 0.0 | 1.7 | 0.00 | 0.14 | 0.14 | 71 | 1012.9 |
| 20260904214600 | 91 | 0 | 0.0 | 1.7 | 0.00 | 0.15 | 0.14 | 70 | 1013.1 |
| 20260904213105 | 92 | 0 | 0.0 | 1.7 | 0.00 | 0.15 | 0.14 | 72 | 1013.3 |
| 20260904211603 | 92 | 0 | 0.0 | 1.7 | 0.00 | 0.15 | 0.14 | 73 | 1013.2 |
| 20260904204601 | 89 | 0 | 0.0 | 2.6 | 0.00 | 0.15 | 0.14 | 76 | 1013.8 |
| 20260904203105 | 86 | 0 | 0.0 | 1.7 | 0.00 | 0.15 | 0.14 | 80 | 1013.8 |
| 20260904201600 | 86 | 253 | 3.5 | 9.6 | 0.00 | 0.15 | 0.14 | 76 | 1014.5 |
| 20260904200115 | 89 | 0 | 0.0 | 2.6 | 0.00 | 0.15 | 0.14 | 76 | 1014.7 |
| 20260904194609 | 90 | 75 | 0.0 | 3.5 | 0.00 | 0.15 | 0.14 | 75 | 1014.4 |
| 20260904193103 | 89 | 100 | 0.0 | 2.6 | 0.00 | 0.15 | 0.14 | 74 | 1014.3 |
| 20260904191601 | 91 | 0 | 0.0 | 1.7 | 0.00 | 0.15 | 0.14 | 71 | 1014.4 |
| 20260904184623 | 91 | 0 | 0.0 | 0.0 | 0.00 | 0.15 | 0.14 | 70 | 1014.8 |
| 20260904183103 | 92 | 0 | 0.0 | 1.7 | 0.00 | 0.15 | 0.14 | 71 | 1015.0 |
| 20260904181603 | 93 | 109 | 0.0 | 2.6 | 0.00 | 0.15 | 0.14 | 71 | 1015.3 |
| 20260904180105 | 91 | 0 | 0.0 | 2.6 | 0.00 | 0.15 | 0.14 | 74 | 1015.4 |
| 20260904174604 | 91 | 0 | 0.0 | 1.7 | 0.00 | 0.15 | 0.14 | 74 | 1015.4 |
| 20260904173110 | 91 | 0 | 0.0 | 1.7 | 0.00 | 0.15 | 0.14 | 76 | 1015.6 |
| 20260904171601 | 89 | 0 | 0.0 | 4.3 | 0.00 | 0.15 | 0.14 | 76 | 1015.9 |
| 20260904170101 | 87 | 0 | 0.0 | 0.9 | 0.00 | 0.15 | 0.14 | 81 | 1015.8 |
| 20260904164603 | 85 | 0 | 0.0 | 1.7 | 0.00 | 0.15 | 0.14 | 81 | 1015.8 |
| 20260904163102 | 83 | 0 | 0.0 | 3.5 | 0.00 | 0.15 | 0.14 | 81 | 1016.0 |
| 20260904161605 | 84 | 0 | 0.0 | 1.7 | 0.00 | 0.15 | 0.14 | 85 | 1016.2 |
| 20260904160100 | 84 | 0 | 0.0 | 2.6 | 0.00 | 0.15 | 0.14 | 86 | 1016.0 |
| 20260904154618 | 84 | 0 | 0.0 | 3.5 | 0.00 | 0.16 | 0.14 | 87 | 1016.0 |
| 20260904153102 | 84 | 0 | 0.0 | 1.7 | 0.00 | 0.16 | 0.14 | 87 | 1016.0 |
| 20260904151602 | 83 | 0 | 0.0 | 2.6 | 0.00 | 0.16 | 0.14 | 86 | 1015.4 |
| 20260904144604 | 82 | 0 | 0.0 | 1.7 | 0.00 | 0.21 | 0.14 | 86 | 1015.3 |
| 20260904143107 | 83 | 0 | 0.0 | 0.0 | 0.00 | 0.21 | 0.14 | 86 | 1015.3 |
| 20260904141605 | 84 | 0 | 0.0 | 0.0 | 0.00 | 0.21 | 0.14 | 86 | 1015.2 |
| 20260904140110 | 83 | 0 | 0.0 | 1.7 | 0.00 | 0.21 | 0.14 | 87 | 1015.0 |
| 20260904134615 | 82 | 0 | 0.0 | 1.7 | 0.00 | 0.77 | 0.14 | 89 | 1015.0 |
| 20260904133103 | 80 | 0 | 0.0 | 1.7 | 0.00 | 0.77 | 0.14 | 91 | 1014.8 |
| 20260904131627 | 78 | 0 | 0.0 | 0.0 | 0.00 | 0.77 | 0.14 | 92 | 1014.7 |
| 20260904130103 | 77 | 0 | 0.0 | 0.0 | 0.00 | 0.77 | 0.14 | 91 | 1014.9 |
| 20260904124613 | 77 | 0 | 0.0 | 0.0 | 0.00 | 0.84 | 0.14 | 91 | 1014.8 |
| 20260904123116 | 77 | 0 | 0.0 | 0.0 | 0.00 | 0.84 | 0.14 | 91 | 1014.5 |
| 20260904121559 | 77 | 0 | 0.0 | 0.0 | 0.00 | 0.84 | 0.14 | 90 | 1014.1 |
| 20260904114604 | 77 | 0 | 0.0 | 0.0 | 0.02 | 0.84 | 0.14 | 90 | 1013.9 |
| 20260904113122 | 77 | 226 | 0.0 | 0.0 | 0.11 | 0.84 | 0.14 | 90 | 1013.5 |
| 20260904113100 | 77 | 0 | 0.0 | 0.0 | 0.11 | 0.84 | 0.14 | 90 | 1014.0 |
| 20260904113040 | 78 | 226 | 0.0 | 0.0 | 0.11 | 0.84 | 0.14 | 90 | 1013.6 |
| 20260904112521 | 78 | 226 | 0.0 | 0.0 | 0.14 | 0.84 | 0.14 | 90 | 1013.6 |
| 20260904111606 | 77 | 0 | 0.0 | 0.0 | 0.14 | 0.84 | 0.14 | 89 | 1013.9 |
| 20260904110104 | 78 | 0 | 0.0 | 0.0 | 0.14 | 0.84 | 0.14 | 89 | 1013.9 |
| 20260904104606 | 79 | 0 | 0.0 | 0.0 | 0.12 | 0.82 | 0.12 | 88 | 1014.1 |
| 20260904103101 | 81 | 0 | 0.0 | 1.7 | 0.02 | 0.72 | 0.02 | 89 | 1014.0 |
| 20260904101559 | 81 | 0 | 0.0 | 0.0 | 0.00 | 0.70 | 0.00 | 89 | 1013.8 |
| 20260904100109 | 81 | 0 | 0.0 | 0.0 | 0.00 | 0.70 | 0.00 | 88 | 1013.4 |
| 20260904094612 | 81 | 0 | 0.0 | 0.0 | 0.00 | 0.70 | 0.00 | 88 | 1013.4 |
| 20260904093057 | 82 | 0 | 0.0 | 0.0 | 0.00 | 0.70 | 0.00 | 88 | 1013.4 |
| 20260904091557 | 82 | 0 | 0.0 | 0.0 | 0.00 | 0.70 | 0.00 | 88 | 1013.4 |
| 20260904090107 | 82 | 0 | 0.0 | 0.0 | 0.00 | 0.70 | 0.00 | 87 | 1013.3 |
| 20260904084600 | 82 | 0 | 0.0 | 0.0 | 0.00 | 0.70 | 0.00 | 87 | 1013.3 |
| 20260904083148 | 82 | 0 | 0.0 | 0.0 | 0.00 | 0.70 | 0.00 | 87 | 1013.2 |
| 20260904081609 | 82 | 0 | 0.0 | 0.0 | 0.00 | 0.70 | 0.00 | 87 | 1013.2 |
| 20260904080104 | 83 | 0 | 0.0 | 0.0 | 0.00 | 0.70 | 0.00 | 86 | 1013.3 |
| 20260904074559 | 83 | 0 | 0.0 | 1.7 | 0.00 | 0.70 | 0.00 | 86 | 1013.4 |
| 20260904073101 | 83 | 0 | 0.0 | 0.0 | 0.00 | 0.70 | 0.00 | 86 | 1013.4 |
| 20260904071623 | 83 | 0 | 0.0 | 0.9 | 0.00 | 0.70 | 0.00 | 86 | 1013.4 |
| 20260904070118 | 83 | 0 | 0.0 | 3.5 | 0.00 | 0.70 | 0.00 | 86 | 1013.5 |
| 20260904064604 | 83 | 0 | 0.0 | 1.7 | 0.00 | 0.70 | 0.00 | 86 | 1013.5 |
| 20260904063112 | 83 | 0 | 0.0 | 0.9 | 0.00 | 0.70 | 0.00 | 86 | 1013.5 |
| 20260904061616 | 83 | 0 | 0.0 | 2.6 | 0.00 | 0.70 | 0.00 | 86 | 1013.5 |
| 20260904060107 | 82 | 0 | 0.0 | 0.0 | 0.00 | 0.70 | 0.00 | 87 | 1013.6 |
| 20260904054605 | 82 | 0 | 0.0 | 1.7 | 0.00 | 0.70 | 0.00 | 87 | 1013.6 |
| 20260904053107 | 82 | 0 | 0.0 | 1.7 | 0.00 | 0.70 | 0.00 | 87 | 1013.3 |
| 20260904051600 | 82 | 0 | 0.0 | 0.0 | 0.00 | 0.70 | 0.00 | 88 | 1013.5 |
| 20260904050105 | 82 | 0 | 0.0 | 0.9 | 0.00 | 0.70 | 0.00 | 88 | 1013.5 |
| 20260904044559 | 82 | 0 | 0.0 | 1.7 | 0.00 | 0.70 | 0.70 | 88 | 1013.6 |
| 20260904043104 | 82 | 0 | 0.0 | 0.0 | 0.00 | 0.70 | 0.70 | 88 | 1013.7 |
| 20260904041601 | 82 | 0 | 0.0 | 0.0 | 0.00 | 0.70 | 0.70 | 88 | 1013.8 |
| 20260904040110 | 82 | 0 | 0.0 | 0.0 | 0.00 | 0.70 | 0.70 | 88 | 1013.9 |